Le nostre stazioni meteo in Italia

Pubblicità
Il mio iltempo24.it
Lampedusa, Italia (16490): Temperatura & dewpoint: 14.01.2018 06:00:00 - 20.01.2018 06:00:00 (CET)Lampedusa, Italia (16490): velocità del vento: 14.01.2018 06:00:00 - 20.01.2018 06:00:00 (CET)Lampedusa, Italia (16490): direzione del vento: 14.01.2018 06:00:00 - 20.01.2018 06:00:00 (CET)Lampedusa, Italia (16490): visibility: 14.01.2018 06:00:00 - 20.01.2018 06:00:00 (CET)
Data & Tempo tt [°C] td [°C] ff [km/h] ff [kn] dd vv [km]
20.01.2018 06:00:00 - - - - - -
20.01.2018 05:00:00 - - - - - -
20.01.2018 04:00:00 - - - - - -
20.01.2018 03:00:00 - - - - - -
20.01.2018 02:00:00 - - - - - -
20.01.2018 01:00:00 - - - - - -
20.01.2018 00:00:00 - - - - - -
19.01.2018 23:00:00 - - - - - -
19.01.2018 22:00:00 15,0 10,0 13 7 SSE 10
19.01.2018 21:00:00 14,0 10,0 15 8 SSE 10
19.01.2018 20:00:00 14,0 10,0 13 7 SSE 10
19.01.2018 19:00:00 14,0 10,0 11 6 S 10
19.01.2018 18:00:00 14,0 9,0 9 5 S 10
19.01.2018 17:00:00 14,0 9,0 11 6 SSE 10
19.01.2018 16:00:00 15,0 9,0 15 8 S 10
19.01.2018 15:00:00 15,0 9,0 18 10 S 10
19.01.2018 14:00:00 15,0 9,0 18 10 S 10
19.01.2018 13:00:00 15,0 9,0 15 8 SSO 10
19.01.2018 12:00:00 15,0 9,0 16 9 S 10
19.01.2018 11:00:00 15,0 9,0 16 9 SSO 10
19.01.2018 10:00:00 15,0 8,0 15 8 S 10
19.01.2018 09:00:00 13,0 8,0 9 5 SO 10
19.01.2018 08:00:00 13,0 8,0 9 5 SO 10
19.01.2018 07:00:00 13,0 8,0 11 6 SSO 10
19.01.2018 06:00:00 13,0 8,0 11 6 SSO 10
19.01.2018 05:00:00 - - - - - -
19.01.2018 04:00:00 - - - - - -
19.01.2018 03:00:00 - - - - - -
19.01.2018 02:00:00 - - - - - -
19.01.2018 01:00:00 - - - - - -
19.01.2018 00:00:00 - - - - - -
18.01.2018 23:00:00 - - - - - -
18.01.2018 22:00:00 12,0 6,0 5 3 O 10
18.01.2018 21:00:00 12,0 6,0 5 3 O 10
18.01.2018 20:00:00 12,0 6,0 8 4 ONO 10
18.01.2018 19:00:00 13,0 7,0 5 3 O 10
18.01.2018 18:00:00 14,0 7,0 9 5 NO 10
18.01.2018 17:00:00 14,0 6,0 8 4 NNO 10
18.01.2018 16:00:00 15,0 5,0 9 5 NNO 10
18.01.2018 15:00:00 15,0 6,0 16 9 N 10
18.01.2018 14:00:00 15,0 5,0 15 8 NNO 10
18.01.2018 13:00:00 15,0 5,0 15 8 NNO 10
18.01.2018 12:00:00 15,0 4,0 18 10 N 10
18.01.2018 11:00:00 15,0 6,0 18 10 N 10
18.01.2018 10:00:00 15,0 5,0 22 12 NNO 10
18.01.2018 09:00:00 14,0 5,0 21 11 NNO 10
18.01.2018 08:00:00 14,0 5,0 22 12 NNO 10
18.01.2018 07:00:00 14,0 5,0 26 14 NNO 10
18.01.2018 06:00:00 14,0 5,0 29 16 NNO 10
18.01.2018 05:00:00 - - - - - -
18.01.2018 04:00:00 - - - - - -
18.01.2018 03:00:00 - - - - - -
18.01.2018 02:00:00 - - - - - -
18.01.2018 01:00:00 - - - - - -
18.01.2018 00:00:00 - - - - - -
17.01.2018 23:00:00 - - - - - -
17.01.2018 22:00:00 15,0 12,0 24 13 ONO 10
17.01.2018 21:00:00 16,0 10,0 39 21 NO 10
17.01.2018 20:00:00 16,0 10,0 39 21 NO 10
17.01.2018 19:00:00 16,0 11,0 24 13 NO 10
17.01.2018 18:00:00 16,0 9,0 16 9 NO 10
17.01.2018 17:00:00 16,0 10,0 21 11 O 10
17.01.2018 16:00:00 17,0 9,0 24 13 O 10
17.01.2018 15:00:00 17,0 10,0 22 12 O 10
17.01.2018 14:00:00 16,0 11,0 22 12 O 10
17.01.2018 13:00:00 16,0 10,0 26 14 O 10
17.01.2018 12:00:00 16,0 10,0 21 11 OSO 10
17.01.2018 11:00:00 16,0 9,0 24 13 O 10
17.01.2018 10:00:00 16,0 10,0 22 12 O 10
17.01.2018 09:00:00 15,0 10,0 26 14 O 10
17.01.2018 08:00:00 14,0 10,0 22 12 OSO 10
17.01.2018 07:00:00 14,0 10,0 22 12 OSO 10
17.01.2018 06:00:00 14,0 10,0 22 12 OSO 10
17.01.2018 05:00:00 - - - - - -
17.01.2018 04:00:00 - - - - - -
17.01.2018 03:00:00 - - - - - -
17.01.2018 02:00:00 - - - - - -
17.01.2018 01:00:00 - - - - - -
17.01.2018 00:00:00 - - - - - -
16.01.2018 23:00:00 - - - - - -
16.01.2018 22:00:00 14,0 10,0 18 10 OSO 10
16.01.2018 21:00:00 14,0 10,0 16 9 OSO 10
16.01.2018 20:00:00 14,0 10,0 16 9 OSO 10
16.01.2018 19:00:00 14,0 10,0 18 10 O 10
16.01.2018 18:00:00 14,0 10,0 16 9 O 10
16.01.2018 17:00:00 15,0 11,0 16 9 O 10
16.01.2018 16:00:00 16,0 10,0 15 8 ONO 10
16.01.2018 15:00:00 16,0 10,0 15 8 ONO 10
16.01.2018 14:00:00 16,0 10,0 18 10 ONO 10
16.01.2018 13:00:00 16,0 9,0 21 11 NO 10
16.01.2018 12:00:00 16,0 9,0 22 12 NO 10
16.01.2018 11:00:00 16,0 8,0 16 9 ONO 10
16.01.2018 10:00:00 15,0 8,0 11 6 O 10
16.01.2018 09:00:00 13,0 8,0 8 4 ONO 10
16.01.2018 08:00:00 12,0 8,0 9 5 O 10
16.01.2018 07:00:00 11,0 7,0 11 6 ONO 10
16.01.2018 06:00:00 11,0 6,0 13 7 ONO 10
16.01.2018 05:00:00 - - - - - -
16.01.2018 04:00:00 - - - - - -
16.01.2018 03:00:00 - - - - - -
16.01.2018 02:00:00 - - - - - -
16.01.2018 01:00:00 - - - - - -
16.01.2018 00:00:00 - - - - - -
15.01.2018 23:00:00 - - - - - -
15.01.2018 22:00:00 13,0 8,0 5 3 NNO 10
15.01.2018 21:00:00 14,0 8,0 5 3 NO 10
15.01.2018 20:00:00 14,0 8,0 8 4 NO 10
15.01.2018 19:00:00 14,0 8,0 4 2 NNO 10
15.01.2018 18:00:00 14,0 8,0 2 1 NO 10
15.01.2018 17:00:00 15,0 8,0 4 2 ONO 10
15.01.2018 16:00:00 15,0 9,0 8 4 O 10
15.01.2018 15:00:00 15,0 7,0 9 5 O 10
15.01.2018 14:00:00 16,0 7,0 11 6 SO 10
15.01.2018 13:00:00 16,0 6,0 9 5 SO 10
15.01.2018 12:00:00 16,0 6,0 9 5 SSO 10
15.01.2018 11:00:00 15,0 6,0 9 5 SSO 10
15.01.2018 10:00:00 15,0 6,0 5 3 SO 10
15.01.2018 09:00:00 14,0 6,0 4 2 OSO 10
15.01.2018 08:00:00 14,0 6,0 8 4 SO 10
15.01.2018 07:00:00 14,0 5,0 9 5 OSO 10
15.01.2018 06:00:00 14,0 6,0 13 7 OSO 10
15.01.2018 05:00:00 - - - - - -
15.01.2018 04:00:00 - - - - - -
15.01.2018 03:00:00 - - - - - -
15.01.2018 02:00:00 - - - - - -
15.01.2018 01:00:00 - - - - - -
15.01.2018 00:00:00 - - - - - -
14.01.2018 23:00:00 - - - - - -
14.01.2018 22:00:00 14,0 7,0 22 12 OSO 10
14.01.2018 21:00:00 14,0 6,0 18 10 OSO 10
14.01.2018 20:00:00 14,0 7,0 18 10 SO 10
14.01.2018 19:00:00 14,0 7,0 22 12 SO 10
14.01.2018 18:00:00 14,0 7,0 26 14 SO 10
14.01.2018 17:00:00 14,0 6,0 26 14 SSO 10
14.01.2018 16:00:00 14,0 7,0 22 12 SO 10
14.01.2018 15:00:00 14,0 7,0 22 12 SSO 10
14.01.2018 14:00:00 15,0 7,0 22 12 SSO 10
14.01.2018 13:00:00 15,0 7,0 24 13 SSO 10
14.01.2018 12:00:00 15,0 6,0 24 13 SSO 10
14.01.2018 11:00:00 15,0 6,0 22 12 SSO 10
14.01.2018 10:00:00 14,0 7,0 18 10 SSO 10
14.01.2018 09:00:00 14,0 6,0 18 10 SSO 10
14.01.2018 08:00:00 13,0 6,0 13 7 SO 10
14.01.2018 07:00:00 13,0 6,0 15 8 SO 10
14.01.2018 06:00:00 13,0 7,0 15 8 SO 10

tt = Temperatura
td = dewpoint
ff = velocità del vento
dd = direzione del vento
vv = visibility

Stazioni seguenti

WeatherPro
AMSI
MeteoEarth